Time,TemperatureF,DewpointF,PressureIn,WindDirection,WindDirectionDegrees,WindSpeedMPH,WindSpeedGustMPH,Humidity,HourlyPrecipIn,Conditions,Clouds,dailyrainin,SoftwareType,DateUTC
2013-12-21 00:00:00,50.6,42.6,30.48,WSW,249,2.0,4.0,74,0.00,CLR,,0.00,WeatherDisplay:10.37,2013-12-20 23:00:00,
2013-12-21 00:15:00,50.3,42.3,30.48,WSW,250,1.0,4.0,74,0.00,CLR,,0.00,WeatherDisplay:10.37,2013-12-20 23:15:00,
2013-12-21 00:30:00,50.4,42.4,30.48,WSW,250,1.0,4.0,74,0.00,CLR,,0.00,WeatherDisplay:10.37,2013-12-20 23:30:00,
2013-12-21 00:45:00,50.3,42.3,30.48,WSW,250,0.0,4.0,74,0.00,CLR,,0.00,WeatherDisplay:10.37,2013-12-20 23:45:00,
2013-12-21 01:00:00,50.0,41.7,30.48,West,262,2.0,6.0,73,0.00,CLR,,0.00,WeatherDisplay:10.37,2013-12-21 00:00:00,
2013-12-21 01:15:00,49.7,41.4,30.48,West,267,2.0,6.0,73,0.00,CLR,,0.00,WeatherDisplay:10.37,2013-12-21 00:15:00,
2013-12-21 01:30:00,49.5,41.6,30.48,West,267,1.0,6.0,74,0.00,CLR,,0.00,WeatherDisplay:10.37,2013-12-21 00:30:00,
2013-12-21 01:45:00,49.4,41.5,30.48,West,266,1.0,6.0,74,0.00,CLR,,0.00,WeatherDisplay:10.37,2013-12-21 00:45:00,
2013-12-21 02:00:00,49.3,41.4,30.48,West,266,1.0,3.0,74,0.00,CLR,,0.00,WeatherDisplay:10.37,2013-12-21 01:00:00,
2013-12-21 02:15:00,49.1,41.2,30.48,West,266,1.0,4.0,74,0.00,CLR,,0.00,WeatherDisplay:10.37,2013-12-21 01:15:00,
2013-12-21 02:30:00,49.1,41.2,30.49,West,265,1.0,6.0,74,0.00,CLR,,0.00,WeatherDisplay:10.37,2013-12-21 01:30:00,
2013-12-21 02:45:00,49.1,41.2,30.49,West,264,0.0,7.0,74,0.00,CLR,,0.00,WeatherDisplay:10.37,2013-12-21 01:45:00,
2013-12-21 03:00:00,49.0,41.1,30.49,West,265,0.0,3.0,74,0.00,CLR,,0.00,WeatherDisplay:10.37,2013-12-21 02:00:00,
2013-12-21 03:15:00,48.7,40.8,30.49,West,265,0.0,3.0,74,0.00,CLR,,0.00,WeatherDisplay:10.37,2013-12-21 02:15:00,
2013-12-21 03:30:00,48.4,40.5,30.49,West,265,1.0,3.0,74,0.00,CLR,,0.00,WeatherDisplay:10.37,2013-12-21 02:30:00,
2013-12-21 03:45:00,47.9,40.4,30.49,West,265,1.0,4.0,75,0.00,CLR,,0.00,WeatherDisplay:10.37,2013-12-21 02:45:00,
2013-12-21 04:00:00,48.1,40.5,30.49,West,267,0.0,4.0,75,0.00,CLR,,0.00,WeatherDisplay:10.37,2013-12-21 03:00:00,
2013-12-21 04:15:00,47.8,40.3,30.49,West,268,5.0,8.0,75,0.00,CLR,,0.00,WeatherDisplay:10.37,2013-12-21 03:15:00,
2013-12-21 04:30:00,47.9,40.4,30.49,West,278,6.0,8.0,75,0.00,CLR,,0.00,WeatherDisplay:10.37,2013-12-21 03:30:00,
2013-12-21 04:45:00,47.6,40.1,30.49,West,274,5.0,8.0,75,0.00,CLR,,0.00,WeatherDisplay:10.37,2013-12-21 03:45:00,
2013-12-21 05:00:00,47.0,39.5,30.49,West,268,3.0,8.0,75,0.00,CLR,,0.00,WeatherDisplay:10.37,2013-12-21 04:00:00,
2013-12-21 05:15:00,46.9,39.4,30.49,West,267,3.0,8.0,75,0.00,CLR,,0.00,WeatherDisplay:10.37,2013-12-21 04:15:00,
2013-12-21 05:30:00,46.9,39.4,30.50,West,263,3.0,8.0,75,0.00,CLR,,0.00,WeatherDisplay:10.37,2013-12-21 04:30:00,
2013-12-21 05:45:00,47.0,39.5,30.51,West,266,2.0,8.0,75,0.00,CLR,,0.00,WeatherDisplay:10.37,2013-12-21 04:45:00,
2013-12-21 06:00:00,46.9,39.4,30.51,West,266,1.0,8.0,75,0.00,CLR,,0.00,WeatherDisplay:10.37,2013-12-21 05:00:00,
2013-12-21 06:15:00,47.0,39.5,30.51,West,266,1.0,8.0,75,0.00,CLR,,0.00,WeatherDisplay:10.37,2013-12-21 05:15:00,
2013-12-21 06:30:00,47.2,39.7,30.52,West,267,2.0,8.0,75,0.00,CLR,,0.00,WeatherDisplay:10.37,2013-12-21 05:30:00,
2013-12-21 06:45:00,48.1,39.8,30.52,NNE,13,2.0,8.0,73,0.00,CLR,,0.00,WeatherDisplay:10.37,2013-12-21 05:45:00,
2013-12-21 07:00:00,47.6,39.7,30.52,NNE,15,2.0,8.0,74,0.00,CLR,,0.00,WeatherDisplay:10.37,2013-12-21 06:00:00,
2013-12-21 07:15:00,47.6,39.7,30.52,NNE,15,1.0,8.0,74,0.00,CLR,,0.00,WeatherDisplay:10.37,2013-12-21 06:15:00,
2013-12-21 07:30:00,48.2,39.9,30.53,NNE,15,2.0,8.0,73,0.00,CLR,,0.00,WeatherDisplay:10.37,2013-12-21 06:30:00,
2013-12-21 07:45:00,49.6,39.8,30.53,NE,37,6.0,10.0,69,0.00,CLR,,0.00,WeatherDisplay:10.37,2013-12-21 06:45:00,
2013-12-21 08:00:00,49.1,39.7,30.53,NNE,31,6.0,10.0,70,0.00,CLR,,0.00,WeatherDisplay:10.37,2013-12-21 07:00:00,
2013-12-21 08:15:00,49.8,39.6,30.53,NE,38,5.0,10.0,68,0.00,CLR,,0.00,WeatherDisplay:10.37,2013-12-21 07:15:00,
2013-12-21 08:30:00,50.1,39.6,30.54,NE,45,5.0,10.0,67,0.00,CLR,,0.00,WeatherDisplay:10.37,2013-12-21 07:30:00,
2013-12-21 08:45:00,50.6,40.0,30.54,NNE,14,2.0,10.0,67,0.00,CLR,,0.00,WeatherDisplay:10.37,2013-12-21 07:45:00,
2013-12-21 09:00:00,51.2,40.2,30.55,NNE,27,3.0,10.0,66,0.00,CLR,,0.00,WeatherDisplay:10.37,2013-12-21 08:00:00,
2013-12-21 09:15:00,52.2,40.3,30.55,NNE,32,5.0,10.0,64,0.00,CLR,,0.00,WeatherDisplay:10.37,2013-12-21 08:15:00,
2013-12-21 09:30:00,53.1,40.0,30.56,NE,36,2.0,10.0,61,0.00,CLR,,0.00,WeatherDisplay:10.37,2013-12-21 08:30:00,
2013-12-21 09:45:00,53.8,39.8,30.57,NNE,31,3.0,10.0,59,0.00,CLR,,0.00,WeatherDisplay:10.37,2013-12-21 08:45:00,
2013-12-21 10:00:00,54.9,39.9,30.57,NE,43,3.0,10.0,57,0.00,CLR,,0.00,WeatherDisplay:10.37,2013-12-21 09:00:00,
2013-12-21 10:15:00,55.3,39.9,30.57,NE,52,3.0,10.0,56,0.00,CLR,,0.00,WeatherDisplay:10.37,2013-12-21 09:15:00,
2013-12-21 10:30:00,56.5,39.6,30.57,NE,53,5.0,10.0,53,0.00,CLR,,0.00,WeatherDisplay:10.37,2013-12-21 09:30:00,
2013-12-21 10:45:00,56.8,39.8,30.57,NE,54,5.0,10.0,53,0.00,CLR,,0.00,WeatherDisplay:10.37,2013-12-21 09:45:00,
2013-12-21 11:00:00,57.2,39.7,30.57,ENE,69,6.0,12.0,52,0.00,CLR,,0.00,WeatherDisplay:10.37,2013-12-21 10:00:00,
2013-12-21 11:15:00,57.4,39.4,30.56,ENE,68,5.0,12.0,51,0.00,CLR,,0.00,WeatherDisplay:10.37,2013-12-21 10:15:00,
2013-12-21 11:30:00,57.7,39.2,30.55,ENE,68,7.0,12.0,50,0.00,CLR,,0.00,WeatherDisplay:10.37,2013-12-21 10:30:00,
2013-12-21 11:45:00,58.0,38.9,30.55,ENE,58,6.0,13.0,49,0.00,CLR,,0.00,WeatherDisplay:10.37,2013-12-21 10:45:00,
2013-12-21 12:00:00,58.5,39.4,30.55,NE,55,5.0,12.0,49,0.00,CLR,,0.00,WeatherDisplay:10.37,2013-12-21 11:00:00,
2013-12-21 12:15:00,58.5,39.4,30.54,ENE,67,3.0,12.0,49,0.00,CLR,,0.00,WeatherDisplay:10.37,2013-12-21 11:15:00,
2013-12-21 12:30:00,58.9,38.7,30.53,NNE,33,2.0,8.0,47,0.00,CLR,,0.00,WeatherDisplay:10.37,2013-12-21 11:30:00,
2013-12-21 12:45:00,59.2,39.5,30.54,ENE,63,5.0,13.0,48,0.00,CLR,,0.00,WeatherDisplay:10.37,2013-12-21 11:45:00,
2013-12-21 13:00:00,59.1,39.4,30.53,NE,52,6.0,12.0,48,0.00,CLR,,0.00,WeatherDisplay:10.37,2013-12-21 12:00:00,
2013-12-21 13:15:00,59.7,39.4,30.53,NE,48,3.0,10.0,47,0.00,CLR,,0.00,WeatherDisplay:10.37,2013-12-21 12:15:00,
2013-12-21 13:30:00,59.5,38.1,30.53,ENE,66,7.0,12.0,45,0.00,CLR,,0.00,WeatherDisplay:10.37,2013-12-21 12:30:00,
2013-12-21 13:45:00,59.7,38.9,30.53,ENE,66,3.0,12.0,46,0.00,CLR,,0.00,WeatherDisplay:10.37,2013-12-21 12:45:00,
2013-12-21 14:00:00,60.0,39.1,30.53,NE,47,5.0,10.0,46,0.00,CLR,,0.00,WeatherDisplay:10.37,2013-12-21 13:00:00,
2013-12-21 14:15:00,59.8,39.0,30.52,ENE,64,5.0,10.0,46,0.00,CLR,,0.00,WeatherDisplay:10.37,2013-12-21 13:15:00,
2013-12-21 14:30:00,59.7,38.9,30.52,ENE,71,8.0,12.0,46,0.00,CLR,,0.00,WeatherDisplay:10.37,2013-12-21 13:30:00,
2013-12-21 14:45:00,59.4,38.0,30.53,ENE,74,8.0,14.0,45,0.00,CLR,,0.00,WeatherDisplay:10.37,2013-12-21 13:45:00,
2013-12-21 15:00:00,59.2,38.4,30.52,ENE,67,3.0,12.0,46,0.00,CLR,,0.00,WeatherDisplay:10.37,2013-12-21 14:00:00,
2013-12-21 15:15:00,59.4,38.0,30.53,ENE,72,5.0,10.0,45,0.00,CLR,,0.00,WeatherDisplay:10.37,2013-12-21 14:15:00,
2013-12-21 15:30:00,59.2,37.9,30.53,ENE,64,3.0,12.0,45,0.00,CLR,,0.00,WeatherDisplay:10.37,2013-12-21 14:30:00,
2013-12-21 15:45:00,58.8,38.1,30.53,ENE,68,3.0,9.0,46,0.00,CLR,,0.00,WeatherDisplay:10.37,2013-12-21 14:45:00,
2013-12-21 16:00:00,58.3,38.2,30.53,ENE,78,3.0,7.0,47,0.00,CLR,,0.00,WeatherDisplay:10.37,2013-12-21 15:00:00,
2013-12-21 16:15:00,57.9,38.3,30.53,NE,56,2.0,12.0,48,0.00,CLR,,0.00,WeatherDisplay:10.37,2013-12-21 15:15:00,
2013-12-21 16:30:00,57.4,38.4,30.53,NE,55,1.0,4.0,49,0.00,CLR,,0.00,WeatherDisplay:10.37,2013-12-21 15:30:00,
2013-12-21 16:45:00,56.6,38.1,30.53,NE,55,3.0,5.0,50,0.00,CLR,,0.00,WeatherDisplay:10.37,2013-12-21 15:45:00,
2013-12-21 17:00:00,56.2,38.3,30.53,NE,55,2.0,6.0,51,0.00,CLR,,0.00,WeatherDisplay:10.37,2013-12-21 16:00:00,
2013-12-21 17:15:00,55.6,38.2,30.54,NE,55,3.0,5.0,52,0.00,CLR,,0.00,WeatherDisplay:10.37,2013-12-21 16:15:00,
2013-12-21 17:30:00,55.5,38.1,30.54,ENE,64,1.0,6.0,52,0.00,CLR,,0.00,WeatherDisplay:10.37,2013-12-21 16:30:00,
2013-12-21 17:45:00,55.3,38.0,30.54,NE,48,2.0,6.0,52,0.00,CLR,,0.00,WeatherDisplay:10.37,2013-12-21 16:45:00,
2013-12-21 18:00:00,55.0,38.2,30.55,NE,42,2.0,6.0,53,0.00,CLR,,0.00,WeatherDisplay:10.37,2013-12-21 17:00:00,
2013-12-21 18:15:00,55.2,37.4,30.55,NE,50,3.0,6.0,51,0.00,CLR,,0.00,WeatherDisplay:10.37,2013-12-21 17:15:00,
2013-12-21 18:30:00,55.2,37.9,30.55,NE,47,3.0,5.0,52,0.00,CLR,,0.00,WeatherDisplay:10.37,2013-12-21 17:30:00,
2013-12-21 18:45:00,54.7,37.9,30.55,NE,41,2.0,6.0,53,0.00,CLR,,0.00,WeatherDisplay:10.37,2013-12-21 17:45:00,
2013-12-21 19:00:00,54.1,37.8,30.55,NNE,29,3.0,8.0,54,0.00,CLR,,0.00,WeatherDisplay:10.37,2013-12-21 18:00:00,
2013-12-21 19:15:00,54.0,37.7,30.55,NE,35,3.0,9.0,54,0.00,CLR,,0.00,WeatherDisplay:10.37,2013-12-21 18:15:00,
2013-12-21 19:30:00,53.7,37.9,30.55,NE,34,5.0,9.0,55,0.00,CLR,,0.00,WeatherDisplay:10.37,2013-12-21 18:30:00,
2013-12-21 19:45:00,54.0,37.7,30.54,NNE,32,1.0,8.0,54,0.00,CLR,,0.00,WeatherDisplay:10.37,2013-12-21 18:45:00,
2013-12-21 20:00:00,53.7,37.9,30.54,NNE,23,1.0,6.0,55,0.00,CLR,,0.00,WeatherDisplay:10.37,2013-12-21 19:00:00,
2013-12-21 20:15:00,53.4,38.5,30.54,NE,44,2.0,10.0,57,0.00,CLR,,0.00,WeatherDisplay:10.37,2013-12-21 19:15:00,
2013-12-21 20:30:00,53.2,38.8,30.54,NE,42,2.0,9.0,58,0.00,CLR,,0.00,WeatherDisplay:10.37,2013-12-21 19:30:00,
2013-12-21 20:45:00,53.4,38.5,30.54,NE,54,0.0,7.0,57,0.00,CLR,,0.00,WeatherDisplay:10.37,2013-12-21 19:45:00,
2013-12-21 21:00:00,53.2,38.8,30.54,NE,56,3.0,7.0,58,0.00,CLR,,0.00,WeatherDisplay:10.37,2013-12-21 20:00:00,
2013-12-21 21:15:00,53.1,38.7,30.54,NE,42,3.0,6.0,58,0.00,CLR,,0.00,WeatherDisplay:10.37,2013-12-21 20:15:00,
2013-12-21 21:30:00,52.7,38.8,30.54,NNE,31,5.0,9.0,59,0.00,CLR,,0.00,WeatherDisplay:10.37,2013-12-21 20:30:00,
2013-12-21 21:45:00,52.4,38.9,30.54,NNE,26,2.0,8.0,60,0.00,CLR,,0.00,WeatherDisplay:10.37,2013-12-21 20:45:00,
2013-12-21 22:00:00,52.4,38.0,30.54,NNE,33,1.0,6.0,58,0.00,CLR,,0.00,WeatherDisplay:10.37,2013-12-21 21:00:00,
2013-12-21 22:15:00,52.8,38.0,30.54,ENE,59,1.0,9.0,57,0.00,CLR,,0.00,WeatherDisplay:10.37,2013-12-21 21:15:00,
2013-12-21 22:30:00,52.7,37.9,30.54,NE,50,3.0,9.0,57,0.00,CLR,,0.00,WeatherDisplay:10.37,2013-12-21 21:30:00,
2013-12-21 22:45:00,52.4,38.0,30.54,ENE,65,3.0,12.0,58,0.00,CLR,,0.00,WeatherDisplay:10.37,2013-12-21 21:45:00,
2013-12-21 23:00:00,52.1,38.6,30.54,NE,55,3.0,10.0,60,0.00,CLR,,0.00,WeatherDisplay:10.37,2013-12-21 22:00:00,
2013-12-21 23:15:00,52.0,38.6,30.54,ENE,58,3.0,9.0,60,0.00,CLR,,0.00,WeatherDisplay:10.37,2013-12-21 22:15:00,
2013-12-21 23:30:00,52.2,38.3,30.55,NE,50,1.0,8.0,59,0.00,CLR,,0.00,WeatherDisplay:10.37,2013-12-21 22:30:00,
2013-12-21 23:45:00,52.4,38.9,30.54,NE,45,3.0,9.0,60,0.00,CLR,,0.00,WeatherDisplay:10.37,2013-12-21 22:45:00,